Location: Tafessasset
(32.5899°N, 5.4824°W)
Time: 07:38:03
(UTC+00:00)

Cosmos 2369 Rocket - Pass Details

Date: 18 February 2020
Orbit: 827 x 854 km, 71.0° (Epoch: 06 April)

Event Time Altitude Azimuth Distance (km) Brightness Sun altitude
Rises 06:20:31 0° 333° (NNW) 3,425 5.0 -9.5°
Reaches altitude 10° 06:23:02 10° 329° (NNW) 2,487 4.3 -9.0°
Maximum altitude 06:28:34 53° 254° (WSW) 1,037 2.4 -7.8°
Drops below altitude 10° 06:34:04 10° 178° (S) 2,468 4.8 -6.7°
Sets 06:36:33 0° 174° (S) 3,398 5.6 -6.2°
